map of TSE home
Great Circle Mapper logo
TSE - Airport
Location
City:  Astana, Aqmola, Kazakhstan
Name:Astana International Airport
ICAO:UACC
IATA:TSE

Details
Type:Airport (Aerodrome, Airfield)
Use:Public/Civil, International (customs port of entry)
Latitude:5101'21"N (51.022500)
Longitude:7127'58"E (71.466111)
Elevation:1165 ft (355 m)
Variation:9.78E (WMM2015 magnetic declination)
0.05 annual change
Runways:1
Longest:11483 × 148 ft (3500 × 45 m), paved

Time
Time Zone:UTC+6
Local Time:

Weather
METAR:UACC 301430Z 35004MPS 320V020 CAVOK 13/00 Q1018 R04/0/0070 NOSIG RMK QFE732/0976
TAF:UACC 301100Z 3012/3112 35006MPS 9999 SCT030 BKN100 TX16/3110Z TN05/3023Z
BECMG 3102/3104 31006MPS

Related Locations
Nearby:
Farthest:PNT: 10894 mi / 17532 km
Puerto Natales [Teniente Julio Gallardo], MA, CL

Find:

   beyond  
but within

Other Information
Maps:
NOTAMs:
Links:
Sources:

  
flag of Kazakhstan
flag of Astana
  

Sectional Chart

Flight Planning
at skyvector.com

Satellite Image

Google Maps Satellite view

 

Copyright © 2004-2016 Karl L. Swartz. All rights reserved.
The Great Circle Mapper name and logo are trademarks of the Great Circle Mapper.
All other trademarks mentioned herein belong to their respective owners.
Please see credits for attibutions and further copyright information.

  Follow gcmap on Facebook Follow gcmap on Twitter Follow gcmap on Google+ GCmap on LinkedIn

hCard Microformat

Geo Microformat